Regional Weather Roundup
Issued by NWS

Home | Current Version | Previous Version | Text Only | Print | Product List | Glossary Off
Versions: 1 2 3 4 5 6 7 8 9 10 11 12 13 14 15 16 17 18 19 20 21 22 23 24 25 26 27 28 29 30 31 32 33 34 35 36 37 38 39 40 41 42 43 44 45 46 47 48 49 50

012
ASUS43 KDMX 040706
RWRIA

WEATHER ROUNDUP FOR IOWA
NATIONAL WEATHER SERVICE DES MOINES IA
100 AM CST SUN DEC 04 2016

NOTE: "FAIR" INDICATES FEW OR NO CLOUDS BELOW 12,000 FEET WITH NO
SIGNIFICANT WEATHER AND/OR OBSTRUCTIONS TO VISIBILITY.

* - THESE STATIONS ARE NOT NWS STATIONS...THUS NOT UNDER NWS
QUALITY CONTROL.  THEY ALSO DO NOT REPORT WEATHER SUCH
AS PRECIPITATION OR FOG.

IAZ001>003-012>014-020>022-031>034-043>046-040800-
   NORTHWEST IOWA

CITY           SKY/WX    TMP DP  RH WIND       PRES   REMARKS
CARROLL *      CLOUDY    34  34 100 SE8       30.03F FOG     WCI  27
CHEROKEE *     CLOUDY    33  33 100 S8        30.02F WCI  26
DENISON *      CLOUDY    34  34 100 S6        30.00F WCI  29
LE MARS *      CLOUDY    34  34 100 S12       30.02F WCI  25
ORANGE CITY *  CLOUDY    34  34 100 S12       30.00F WCI  25
SHELDON *      CLOUDY    34  34 100 S13       29.99F WCI  25
SIOUX CITY     CLOUDY    35  33  92 S7        30.02F WCI  29
SPENCER        CLOUDY    33  33 100 S16       30.02F WCI  23
STORM LAKE *   MIX PCPN  32  32 100 SE10      30.01F WCI  24
$$

IAZ055>058-069>071-079>083-090>094-040800-
   SOUTHWEST IOWA

CITY           SKY/WX    TMP DP  RH WIND       PRES   REMARKS
ATLANTIC *     CLOUDY    34  34 100 S8        30.04F FOG     WCI  27
AUDUBON *      LGT SNOW  34  30  86 S6        30.04F WCI  29
CLARINDA *       N/A     39  39 100 S9        30.08F FOG     WCI  33
COUNCIL BLFS * MIX PCPN  34  34 100 S9        30.03F WCI  26
CRESTON *      MIX PCPN  37  36  93 S9        30.07S WCI  31
HARLAN  *      LGT SNOW  32  32 100 S5        30.07S WCI  27
LAMONI         LGT RAIN  38  34  85 S12       30.08F WCI  30
RED OAK *      CLOUDY    37  37 100 S8        30.05F FOG     WCI  31
SHENANDOAH *   CLOUDY    39  37  93 S8        30.06F FOG     WCI  34
$$

IAZ047>049-059>061-072>074-084-040800-
   CENTRAL IOWA

CITY           SKY/WX    TMP DP  RH WIND       PRES   REMARKS
AMES           LGT SNOW  33  33 100 SE14      30.08F VSB 1   WCI  23
ANKENY *       LGT SNOW  34  34 100 SE8       30.10F WCI  27
BOONE *        LGT SNOW  32  32 100 SE17G29   30.05F WCI  21
CHARITON *       N/A     37  36  93 SE10      30.09F WCI  30
DES MOINES     LGT SNOW  36  34  92 SE8       30.09F FOG     WCI  30
GRINNELL*      LGT SNOW  33  32  96 SE9       30.12F WCI  25
KNOXVILLE *    MIX PCPN  36  34  93 SE13      30.08F WCI  27
MARSHALLTOWN   LGT SNOW  33  32  96 SE14      30.10F FOG     WCI  23
NEWTON *       CLOUDY    32  32 100 SE14      30.10F FOG     WCI  22
PELLA *        LGT RAIN  35  33  92 SE9       30.12F WCI  28
PERRY *        LGT SNOW  33  33 100 SE10      30.06F WCI  25
$$

IAZ004>006-015-016-023>025-035-036-040800-
   NORTH CENTRAL IOWA

CITY           SKY/WX    TMP DP  RH WIND       PRES   REMARKS
ALGONA *       CLOUDY    34  34 100 SE14G20   30.04F FOG     WCI  24
CLARION *      CLOUDY    34  34 100 SE14      30.07F FOG     WCI  24
ESTHERVILLE    LGT SNOW  32  32 100 S14       30.03F FOG     WCI  22
FORT DODGE *   CLOUDY    34  30  86 SE8       30.06F WCI  27
MASON CITY     LGT SNOW  32  31  96 SE14      30.10F FOG     WCI  22
FOREST CITY *  LGT SNOW  32  32 100 SE9       30.07F WCI  24
WEBSTER CITY * LGT SNOW  34  34 100 SE14      30.04F WCI  24
IOWA FALLS *   LGT SNOW  33  32  96 SE9       30.10F WCI  26
$$

IAZ007>011-017>019-026>030-037>042-050>054-066-040800-
   NORTHEAST IOWA

CITY           SKY/WX    TMP DP  RH WIND       PRES   REMARKS
CEDAR RAPIDS   LGT SNOW  33  31  92 SE9       30.16F FOG     WCI  25
CHARLES CITY * CLOUDY    32  32 100 SE12      30.12F FOG     WCI  23
CLINTON *      CLOUDY    34  27  75 SE8       30.21F WCI  27
DECORAH *      LGT SNOW  32  32 100 VRB6      30.13F WCI  26
DUBUQUE        CLOUDY    32  28  85 S9        30.18F WCI  24
MONTICELLO *   MIX PCPN  34  28  80 SE8       30.18F WCI  27
OELWEIN *      MIX PCPN  32  32 100 SE15      30.14F WCI  22
WATERLOO       LGT SNOW  33  31  92 SE12      30.13F FOG     WCI  24
$$

IAZ064-065-067-068-078-040800-
   EAST CENTRAL IOWA

CITY           SKY/WX    TMP DP  RH WIND       PRES   REMARKS
DAVENPORT      CLOUDY    34  27  75 SE10      30.20F WCI  26
IOWA CITY      CLOUDY    35  28  75 SE10      30.19F WCI  27
MUSCATINE *    CLOUDY    36  28  75 SE7       30.20F WCI  30
QUAD CITIES    CLOUDY    34  27  75 SE7       30.20F WCI  28
$$

IAZ062-063-075>077-085>089-095>099-040800-
   SOUTHEAST IOWA

CITY           SKY/WX    TMP DP  RH WIND       PRES   REMARKS
BURLINGTON     CLOUDY    35  31  85 SE10      30.18F WCI  27
FAIRFIELD *    CLOUDY    36  30  80 SE10      30.15F WCI  28
FORT MADISON * CLOUDY    36  32  87 E9        30.17F WCI  29
KEOKUK *       CLOUDY    37  34  87 SE10      30.15F WCI  30
OSKALOOSA *    LGT RAIN  35  32  89 SE10      30.13F WCI  27
CENTERVILLE *  MOCLDY    37  32  81 SE7       30.13F WCI  32
OTTUMWA        CLOUDY    37  32  82 SE9       30.13F WCI  30
WASHINGTON *   CLOUDY    34  32  93 SE10      30.18F WCI  26
$$

ABBREVIATIONS USED IN REMARKS
   TC - TEMPERATURES IN CELSIUS
  WCI - WIND CHILL INDEX
   HX - HEAT INDEX
  VSB - VISIBILITY
$$





USA.gov is the U.S. government's official web portal to all federal, state and local government web resources and services.